Regional Weather Roundup
Issued by NWS

Home | Current Version | Previous Version | Text Only | Print | Product List | Glossary On
Versions: 1 2 3 4 5 6 7 8 9 10 11 12 13 14 15 16 17 18 19 20 21 22 23 24 25 26 27 28 29 30 31 32 33 34 35 36 37 38 39 40 41 42 43 44 45 46 47 48 49 50
000
ASUS43 KLOT 062108
RWRIL

ILLINOIS REGIONAL WEATHER ROUNDUP
NATIONAL WEATHER SERVICE CHICAGO/ROMEOVILLE IL
400 PM CDT MON JUL 06 2015

NOTE: "FAIR" INDICATES FEW OR NO CLOUDS BELOW 12,000 FEET WITH NO
SIGNIFICANT WEATHER AND/OR OBSTRUCTIONS TO VISIBILITY.

* THESE STATIONS ARE NOT UNDER NWS QUALITY CONTROL. THEY ALSO MAY NOT
  REPORT WEATHER SUCH AS PRECIPITATION OR FOG.

ILZ001-002-007-009-015-016-024-062200-
NORTHWEST ILLINOIS

CITY           SKY/WX    TMP DP  RH WIND       PRES   REMARKS
MOLINE         CLOUDY    82  73  74 S7        29.83F HX  87
STERLING*      CLOUDY    81  75  83 CALM      29.86F HX  86
SAVANNA*       CLOUDY    76  73  91 S12       29.83F FOG
$$

ILZ003-004-008-010-011-017-018-062200-
NORTH CENTRAL ILLINOIS

CITY           SKY/WX    TMP DP  RH WIND       PRES   REMARKS
ROCKFORD       LGT RAIN  77  72  84 SW6       29.89F
FREEPORT*      CLOUDY    74  72  92 S12       29.88F
ROCHELLE*      CLOUDY    80  74  80 S9        29.88F HX  85
DE KALB*       CLOUDY    77  71  82 S13       29.89F
PERU*          CLOUDY    84  73  68 SW10      29.88F HX  90
$$

ILZ005-006-012>014-019>023-062200-
NORTHEAST ILLINOIS

CITY           SKY/WX    TMP DP  RH WIND       PRES   REMARKS
CHICAGO-OHARE  CLOUDY    76  70  82 S8        29.90F
CHICAGO-MIDWAY CLOUDY    79  70  74 S12       29.91F HX  82
AURORA         CLOUDY    81  70  69 S13G21    29.89F HX  84
LANSING*       CLOUDY    84  67  56 S13       29.92F HX  87
JOLIET*        CLOUDY    78  72  82 SE6       29.89F HX  81
WAUKEGAN       CLOUDY    73  70  90 SE10      29.86F
DUPAGE AIRPORT CLOUDY    77  71  82 S7        29.89F
KANKAKEE*      LGT RAIN  80  75  83 S7        29.92F HX  86
WHEELING       CLOUDY    75  70  84 S9        29.91F
MORRIS*        CLOUDY    84  70  62 S7        29.88F HX  88
ROMEOVILLE*    CLOUDY    77  72  86 S8        29.90F
NORTHERLY ISL    N/A     76  67  73 S7          N/A
$$

LMZ740>746-062200-
SOUTHERN LAKE MICHIGAN

STATION/POSITION SKY/WX   TEMP    WIND        PRES    VSBY  WAVE
                          AIR SEA DIR/SP/G                  HT/PER
                          (F)     (DEG/KT/KT) (MB)    (MI)  (FT/S)
HARRISON CRIB              74     300/ 23/ 26   N/A
BURNHAM HARBOR             80     290/ 13/ 18   N/A
CALUMET HARBOR             85     180/  8/ 16   N/A
BURNS HARBOR               84     180/ 12/ 21 1013.9S
MICHIGAN CITY              82     180/ 14/ 19   N/A
MICHIGAN CITY 6N           76 67  200/  8/ 14   N/A           1/ 3
ST. JOSEPH                 74 66  230/  8/  8   N/A           1/ 2
$$

ILZ025>027-034>036-040-047-049-050-058-095>099-062200-
WEST-CENTRAL ILLINOIS

CITY           SKY/WX    TMP DP  RH WIND       PRES   REMARKS
QUINCY         PTSUNNY   88  75  65 S16       29.88F HX  97
GALESBURG*     PTSUNNY   84  74  72 S15G21    29.86F HX  91
MACOMB*        CLOUDY    86  76  71 S10G16    29.89F HX  96
JACKSONVILLE*  CLOUDY    88  76  68 S12       29.91F HX  99
PITTSFIELD*    CLOUDY    86  74  67 S7G16     29.91F HX  94
$$

ILZ028>032-037-038-041>044-048-051>054-059>061-062200-
CENTRAL ILLINOIS

CITY           SKY/WX    TMP DP  RH WIND       PRES   REMARKS
PONTIAC        TSTM      75  69  80 S6        29.91F
BLOOMINGTON    TSTM      78  73  84 S6        29.94F HX  80
DECATUR        CLOUDY    84  74  71 S15       29.95S HX  91
PEORIA         CLOUDY    89  75  63 S14       29.88F HX  99
LACON*         CLOUDY    87  75  67 S10       29.87F HX  97
LINCOLN*       CLOUDY    86  76  71 S10       29.91F HX  95
SPRINGFIELD    CLOUDY    87  75  67 SW8       29.92S HX  96
TAYLORVILLE    CLOUDY    81  70  69 SW13G25   29.94F HX  84
$$

ILZ033-039-045-046-055>057-062-063-062200-
EAST-CENTRAL ILLINOIS

CITY           SKY/WX    TMP DP  RH WIND       PRES   REMARKS
CHAMPAIGN      PTSUNNY   86  73  65 S12G20    29.96S HX  93
DANVILLE*      PTSUNNY   83  73  70 SW13      29.94S HX  89
RANTOUL*       PTSUNNY   87  74  65 SW9G17    29.95S HX  95
MATTOON        PTSUNNY   84  73  69 S10G20    29.97S HX  90
PARIS*         PTSUNNY   86  73  65 S9G17     29.98S HX  93
$$

ILZ079-100>102-062200-
SOUTHWEST ILLINOIS

CITY           SKY/WX    TMP DP  RH WIND       PRES   REMARKS
ALTON          PTSUNNY   81 N/A N/A S9        29.94F
BELLEVILLE     CLOUDY    82  76  82 S9        29.94F HX  88
CAHOKIA*       CLOUDY    85  77  77 SE7       29.94F HX  95
SPARTA*        PTSUNNY   85  75  70 S10       29.98F HX  93
$$

ILZ064>066-069>071-074>076-080>082-084>086-088>090-092>094-062200-
SOUTH-CENTRAL ILLINOIS

CITY           SKY/WX    TMP DP  RH WIND       PRES   REMARKS
CARBONDALE     PTSUNNY   85  74  69 S16       29.99F HX  92
CAIRO*         MOSUNNY   83  75  75 S8        30.01F HX  91
EFFINGHAM*     PTSUNNY   85  71  63 SE10      29.99S HX  89
MARION         PTSUNNY   86  75  70 SW12      30.00F HX  95
MT. VERNON     PTSUNNY   88  73  62 S10       29.99F HX  96
CENTRALIA*     MOSUNNY   85  72  65 S12       29.98F HX  91
SALEM*         MOSUNNY   87  74  65 S8        29.98F HX  96
$$

ILZ067-068-072-073-078-083-087-091-062200-
SOUTHEAST ILLINOIS

CITY           SKY/WX    TMP DP  RH WIND       PRES   REMARKS
LAWRENCEVILLE  MOSUNNY   85  74  69 S15       29.99F HX  92
FLORA*         MOSUNNY   84  74  70 SW13      29.99F HX  91
FAIRFIELD*     PTSUNNY   85  75  73 SW9       29.97F HX  94
HARRISBURG*    MOSUNNY   85  73  67 SW10      30.02S HX  92
ROBINSON*      MOSUNNY   86  72  62 SW9       30.00S HX  92
CARMI*         PTSUNNY   86  69  55 S13       30.00S HX  90
$$

ABBREVIATIONS USED IN REMARKS
   TC - TEMPERATURE IN CELSIUS
  WCI - WIND CHILL INDEX
   HX - HEAT INDEX
  VSB - VISIBILITY
$$




USA.gov is the U.S. government's official web portal to all federal, state and local government web resources and services.